This is the latest recevied weather packets stored in our database for station/object WX9WTF. If no packets are shown the sender has not sent any weather packets the latest 10 day(s).
| Time | Temp. | Humidity | Pressure | Rain* | Wind** | Luminosity | Snow |
|---|---|---|---|---|---|---|---|
| 1777599077 | 13.89° C | 62% | 1017.5 hPa | 0 mm | - | 0 W/m² | - |
| 1777598775 | 13.89° C | 61% | 1017.5 hPa | 0 mm | - | 0 W/m² | - |
| 1777598469 | 14.44° C | 62% | 1017.5 hPa | 0 mm | - | 1 W/m² | - |
| 1777598169 | 14.44° C | 62% | 1017.2 hPa | 0 mm | - | 2 W/m² | - |
| 1777597863 | 14.44° C | 62% | 1017.4 hPa | 0 mm | - | 3 W/m² | - |
| 1777597557 | 15° C | 62% | 1017.2 hPa | 0 mm | - | 5 W/m² | - |
| 1777597253 | 15° C | 61% | 1017.1 hPa | 0 mm | - | 8 W/m² | - |
| 1777596948 | 15° C | 61% | 1016.8 hPa | 0 mm | - | 13 W/m² | - |
| 1777596645 | 15° C | 60% | 1017 hPa | 0 mm | - | 17 W/m² | - |
| 1777596342 | 15° C | 59% | 1016.8 hPa | 0 mm | - | 20 W/m² | - |
| 1777596039 | 15.56° C | 58% | 1016.7 hPa | 0 mm | - | 25 W/m² | - |
| 1777595734 | 15.56° C | 58% | 1016.7 hPa | 0 mm | - | 33 W/m² | - |
| 1777595429 | 15.56° C | 58% | 1016.5 hPa | 0 mm | - | 44 W/m² | - |
| 1777595126 | 15.56° C | 59% | 1016.4 hPa | 0 mm | - | 44 W/m² | - |
| 1777594822 | 15.56° C | 59% | 1016.4 hPa | 0 mm | - | 39 W/m² | - |
| 1777594518 | 15.56° C | 59% | 1016.4 hPa | 0 mm | - | 38 W/m² | - |
| 1777594215 | 15° C | 64% | 1016.3 hPa | 0 mm | - | 48 W/m² | - |
| 1777593911 | 15° C | 76% | 1016.1 hPa | 0 mm | - | 50 W/m² | - |
| 1777593608 | 15° C | 78% | 1016.1 hPa | 0 mm | - | 50 W/m² | - |
| 1777593303 | 15° C | 79% | 1015.9 hPa | 0 mm | - | 62 W/m² | - |
| 1777592998 | 15° C | 78% | 1016 hPa | 0 mm | - | 70 W/m² | - |
| 1777592692 | 15° C | 79% | 1016 hPa | 0 mm | - | 56 W/m² | - |
| 1777592388 | 15° C | 79% | 1015.9 hPa | 0 mm | - | 75 W/m² | - |
| 1777592083 | 15° C | 77% | 1016 hPa | 0 mm | - | 98 W/m² | - |
| 1777591781 | 14.44° C | 82% | 1016 hPa | 0 mm | - | 121 W/m² | - |
* Rain latest hour (hover to see other rain measurements)
** Current wind speed in m/s (hover to see current wind gust speed)